DMSP 5D-2 F13 DEB, 40418

Orbit data source: Space-Track

DMSP 5D-2 F13 DEB, 40418 is space debris in SSO originally from a launch on Fri, 24 Mar 1995 UTC launched from the Air Force Western Test Range (AFWTR). Debris objects in space refer to the collection of defunct objects orbiting the Earth. Examples of debris include non-operational satellites, rocket bodies, and fragments generated from explosions, collisions, or faulty payload assembly.

Loading next visibility...
DMSP 5D-2 F13 DEB details
Identifier
40418, 1995-015AF
Orbit
SSO
Last TLE update8 hours ago
Origin
Flag of USUSAF SMC (US)
ManufacturerUnknown
MissionSpacecraft
Bus & MotorUnknown
MassUnknown
Launch date (UTC)
1995-03-24 (30 years ago)
Launch vehicleUnknown
Launch site
Air Force Western Test Range (AFWTR)
Object type
Payload
Rocket body
Debris
Shape & HBRUnknown
Radar Cross SectionSmall (<0.1 m²)

Expand to show TLE details & history

TLE from 8 hours ago
0 DMSP 5D-2 F13 DEB
1 40418U 95015AF  25044.50557448  .00004328  00000-0  16950-2 0  9990
2 40418  98.6870  69.6994 0006507 332.3303  27.7532 14.29962299517300
Epoch: 2025-02-13T12:08Z
Definitive object data (Epoch: 2025-02-13T12:08:01.635Z)
Latitude
Longitude103.91186°
Altitude790.657 km
Speed7.461 km/s
True Right ascension04h 38m 47s
True Declination0° 00' 00"
Sunlit
Object was in daylight at TLE epoch
Visualization TLE readout
Latitude-12.16683°
Longitude-77.6494°
Altitude800.688 km
Speed7.451 km/s
Apparent Right ascension14h 09m 04s
Apparent Declination-33° 43' 56"
Sunlit
Object is in daylight
Visualization observer readout
Local Sidereal Time22:20:43
Azimuth258.98° W
Elevation-44.661°
Doppler factor1
Orbital elements
Apogee altitude793.665 km
Perigee altitude784.337 km
Semi-major axis7,167.138 km
Eccentricity0.0006507
Inclination98.687°
RAAN69.6994°
Arg. of periapsis332.3303°
True anomaly27.78795°
Mean anomaly27.7532°
Eccentric anomaly27.77057°
Mean motion3.57705 °/min
BSTAR0.001695
Orbital period100.64 mins
Loading maneuver chart data...

DMSP 5D-2 F13 DEB Visibility forecast

Observer location: undefined°, undefined

Span
Click to sort rows by Start time (UTC) header in descending order
Start Az.
Max El. time (UTC)
Max El. Az.
Max El.
End time (UTC)
End Az.
5 mins2025-02-14 00:03:49.591Z91.197° ESE2025-02-14 00:06:49.591Z55.019° ENE13.932°2025-02-14 00:08:49.591Z31.553° NE
8 mins2025-02-14 01:41:49.591Z175.664° S2025-02-14 01:44:49.591Z218.949° SW42.891°2025-02-14 01:49:49.591Z341.527° N
7 mins2025-02-14 13:55:49.591Z39.579° NE2025-02-14 13:58:49.591Z99.31° ESE33.963°2025-02-14 14:02:49.591Z165.45° S
6 mins2025-02-14 15:35:49.591Z329.085° NNW2025-02-14 15:37:49.591Z298.552° NW21.785°2025-02-14 15:41:49.591Z245.4° WSW
|